Volver al catálogo

FENGYUN 1C DEB

LostSSO
NORAD 35136·DEBRIS·🇨🇳 China

Lanzado May 10, 1999 desde Taiyuan Satellite Launch Center

Loading…

Próximos Pases (próximas 24 horas)

TLE

ObsoletoSource: Space-Track

Época: Sep 23, 2022, 00:50 UTC

1 35136U 99025DLQ 22266.03508437  .00003541  00000-0  12157-2 0  9992
2 35136  98.6812 351.5603 0075529 199.3400 160.4916 14.35123771714149

Sigue FENGYUN 1C DEB en tiempo real con AllMySat

Download on the App Store